KC3PWY-13 Weather Reports


Display with metric or nautical units.
time (UTC)temp
F
wind
direction
speed
MPH
gust
MPH
rain 1hr
in
rain 24hr
in
rain mn
in
humidity
%
barometer
mb
20260507220643 59 337 0.0 5.0 0.00 0.00 0.00 40 1011.5
20260507215642 61 292 1.0 4.0 0.00 0.00 0.00 37 1011.3
20260507214642 61 337 2.0 4.0 0.00 0.00 0.00 36 1011.2
20260507213641 62 315 2.0 5.0 0.00 0.00 0.00 35 1011.1
20260507212642 63 0 4.0 7.0 0.00 0.00 0.00 34 1011.0
20260507211640 63 112 1.0 6.0 0.00 0.00 0.00 36 1011.2
20260507210640 65 292 2.0 5.0 0.00 0.00 0.00 35 1011.1
20260507205640 63 337 3.0 5.0 0.00 0.00 0.00 36 1010.9
20260507204639 63 315 3.0 4.0 0.00 0.00 0.00 34 1011.0
20260507203638 67 22 1.0 4.0 0.00 0.00 0.00 33 1011.0
20260507202637 64 225 1.0 4.0 0.00 0.00 0.00 38 1010.9
20260507201637 64 202 1.0 5.0 0.00 0.00 0.00 38 1010.9
20260507200635 66 337 5.0 7.0 0.00 0.00 0.00 33 1011.0
20260507195750 64 247 1.0 5.0 0.00 0.00 0.00 37 1011.3
20260507194634 64 180 1.0 5.0 0.00 0.00 0.00 39 1011.3
20260507193634 66 67 4.0 7.0 0.00 0.00 0.00 35 1011.3
20260507192633 65 225 1.0 4.0 0.00 0.00 0.00 38 1011.3
20260507191632 63 315 2.0 6.0 0.00 0.00 0.00 38 1011.4
20260507190747 63 315 3.0 5.0 0.00 0.00 0.00 38 1011.5
20260507185632 63 292 3.0 5.0 0.00 0.00 0.00 38 1011.6
20260507184632 64 247 1.0 5.0 0.00 0.00 0.00 38 1011.7
20260507183631 62 202 2.0 3.0 0.00 0.00 0.00 40 1011.7
20260507182631 62 247 0.0 5.0 0.00 0.00 0.00 41 1011.9
20260507181745 61 22 0.0 3.0 0.00 0.00 0.00 42 1011.9
20260507180630 62 202 1.0 3.0 0.00 0.00 0.00 43 1011.9
20260507175630 61 0 2.0 4.0 0.00 0.00 0.00 43 1012.0
20260507174630 61 90 0.0 5.0 0.00 0.00 0.00 43 1012.2
20260507173629 62 315 2.0 4.0 0.00 0.00 0.00 41 1012.4
20260507172629 59 292 1.0 4.0 0.00 0.00 0.00 45 1012.5
20260507171628 62 180 1.0 6.0 0.00 0.00 0.00 42 1012.5
20260507170627 64 315 1.0 4.0 0.00 0.00 0.00 40 1012.7
20260507165627 63 22 1.0 4.0 0.00 0.00 0.00 41 1012.8
20260507164627 65 202 1.0 4.0 0.00 0.00 0.00 40 1012.8
20260507163628 63 315 3.0 5.0 0.00 0.00 0.00 39 1012.9
20260507162626 65 270 2.0 5.0 0.00 0.00 0.00 39 1013.1
20260507160625 63 270 2.0 3.0 0.00 0.00 0.00 40 1013.2
20260507155739 63 247 3.0 5.0 0.00 0.00 0.00 40 1013.3
20260507154623 65 22 2.0 4.0 0.00 0.00 0.00 38 1013.5
20260507153737 62 270 2.0 3.0 0.00 0.00 0.00 44 1013.5
20260507152738 62 292 2.0 4.0 0.00 0.00 0.00 43 1013.6
20260507151622 61 180 2.0 3.0 0.00 0.00 0.00 42 1013.7
20260507150622 62 337 1.0 4.0 0.00 0.00 0.00 44 1013.8
20260507145622 60 315 2.0 3.0 0.00 0.00 0.00 45 1014.0
20260507144621 58 157 2.0 2.0 0.00 0.00 0.00 50 1014.2
20260507143621 58 247 2.0 4.0 0.00 0.00 0.00 50 1014.3
20260507142621 58 247 1.0 3.0 0.00 0.01 0.00 52 1014.4
20260507141619 57 180 2.0 4.0 0.00 0.01 0.00 53 1014.5
20260507140619 56 337 2.0 2.0 0.00 0.01 0.00 52 1014.6
20260507135618 55 337 1.0 3.0 0.00 0.01 0.00 60 1014.7
20260507134617 54 270 1.0 3.0 0.00 0.01 0.00 60 1014.8
20260507133617 51 135 1.0 4.0 0.00 0.01 0.00 70 1014.9
20260507132732 50 270 0.0 2.0 0.00 0.02 0.00 73 1015.0
20260507131618 48 225 0.0 2.0 0.00 0.02 0.00 81 1015.1
20260507130616 47 225 1.0 2.0 0.00 0.02 0.00 82 1015.0
20260507125730 46 247 0.0 2.0 0.00 0.02 0.00 90 1015.1
20260507124616 45 202 0.0 0.0 0.00 0.02 0.00 97 1015.1
20260507123614 44 225 0.0 2.0 0.00 0.02 0.00 99 1015.1
20260507122613 43 225 0.0 1.0 0.00 0.02 0.00 99 1015.2
20260507121613 42 225 0.0 0.0 0.00 0.03 0.00 99 1015.2
20260507120612 41 202 0.0 0.0 0.00 0.04 0.00 99 1015.1
20260507115727 39 225 0.0 0.0 0.00 0.06 0.00 99 1015.2
20260507114612 39 202 0.0 0.0 0.00 0.08 0.00 99 1015.1
20260507113612 38 202 0.0 0.0 0.00 0.09 0.00 99 1015.1
20260507112610 37 202 0.0 0.0 0.00 0.09 0.00 99 1014.9
20260507111725 37 225 0.0 0.0 0.00 0.09 0.00 99 1014.8
20260507110610 37 202 0.0 0.0 0.00 0.09 0.00 99 1014.8
20260507105609 36 202 0.0 0.0 0.00 0.09 0.00 99 1014.8
20260507104609 35 202 0.0 0.0 0.00 0.11 0.00 99 1014.7
20260507103724 35 202 0.0 0.0 0.00 0.13 0.00 99 1014.5
20260507102723 35 202 0.0 0.0 0.00 0.16 0.00 99 1014.5
20260507101722 35 225 0.0 0.0 0.00 0.18 0.00 99 1014.5
20260507100607 35 225 0.0 0.0 0.00 0.20 0.00 99 1014.4
20260507095607 36 247 0.0 0.0 0.00 0.24 0.00 99 1014.4
20260507094607 36 202 0.0 0.0 0.00 0.27 0.00 99 1014.4
20260507093606 36 202 0.0 0.0 0.00 0.28 0.00 99 1014.3
20260507092606 36 180 0.0 0.0 0.00 0.29 0.00 99 1014.4
20260507091605 36 202 0.0 0.0 0.00 0.31 0.00 99 1014.6
20260507090604 36 270 0.0 0.0 0.00 0.33 0.00 99 1014.6
20260507085604 37 202 0.0 0.0 0.00 0.36 0.00 98 1014.6
20260507084603 37 225 0.0 0.0 0.00 0.38 0.00 99 1014.6
20260507083717 37 202 0.0 0.0 0.00 0.40 0.00 97 1014.5
20260507082601 38 225 0.0 0.0 0.00 0.42 0.00 96 1014.5
20260507081600 38 225 0.0 0.0 0.00 0.43 0.00 96 1014.5
20260507080559 38 180 0.0 0.0 0.00 0.44 0.00 96 1014.4
20260507075559 38 202 0.0 0.0 0.00 0.44 0.00 95 1014.5
20260507074714 39 270 0.0 0.0 0.00 0.44 0.00 93 1014.5
20260507073557 39 202 0.0 0.0 0.00 0.44 0.00 93 1014.6
20260507072556 40 225 0.0 0.0 0.00 0.44 0.00 92 1014.7
20260507071556 40 180 0.0 0.0 0.00 0.44 0.00 90 1014.7
20260507070555 41 202 0.0 0.0 0.00 0.44 0.00 89 1014.7
20260507065555 41 225 0.0 0.0 0.00 0.44 0.00 87 1014.8
20260507064555 42 202 0.0 0.0 0.00 0.45 0.00 86 1014.8
20260507063554 43 225 0.0 0.0 0.00 0.46 0.00 85 1014.6
20260507062708 43 225 0.0 0.0 0.00 0.46 0.00 84 1014.7
20260507061708 44 247 0.0 0.0 0.00 0.47 0.00 83 1014.7
20260507060553 45 247 0.0 0.0 0.00 0.48 0.00 79 1014.8
20260507055552 46 225 0.0 0.0 0.00 0.49 0.00 78 1014.9
20260507054552 46 225 0.0 0.0 0.00 0.49 0.00 76 1015.0
20260507053551 46 225 0.0 0.0 0.00 0.50 0.00 76 1015.2
20260507052551 46 270 0.0 2.0 0.00 0.50 0.00 75 1015.4
20260507051551 46 292 0.0 2.0 0.00 0.52 0.00 74 1015.5
20260507050551 46 292 1.0 2.0 0.00 0.52 0.00 75 1015.5
20260507045704 46 337 0.0 0.0 0.00 0.53 0.00 74 1015.5
20260507044548 46 247 0.0 0.0 0.00 0.53 0.00 76 1015.3
20260507043549 46 270 0.0 0.0 0.00 0.53 0.00 75 1015.3
20260507042547 47 270 0.0 0.0 0.00 0.53 0.00 76 1015.4
20260507041547 47 225 0.0 0.0 0.00 0.53 0.00 76 1015.3
20260507040547 47 247 0.0 0.0 0.00 0.53 0.00 74 1015.3
20260507035545 47 247 0.0 0.0 0.00 0.53 0.53 78 1015.1
20260507034545 47 247 0.0 0.0 0.00 0.53 0.53 76 1015.2
20260507033545 47 225 0.0 0.0 0.00 0.53 0.53 73 1015.2
20260507032544 48 202 0.0 0.0 0.00 0.53 0.53 73 1014.9
20260507031544 48 225 0.0 0.0 0.00 0.53 0.53 72 1015.0
20260507030659 48 45 0.0 0.0 0.00 0.53 0.53 72 1014.8
20260507025543 48 180 0.0 0.0 0.00 0.53 0.53 72 1014.9
20260507024543 48 135 0.0 0.0 0.00 0.53 0.53 71 1014.8
20260507023657 48 22 0.0 0.0 0.00 0.53 0.53 72 1014.7
20260507022541 49 270 0.0 0.0 0.00 0.53 0.53 71 1014.8
20260507021541 49 112 0.0 0.0 0.00 0.53 0.53 71 1014.5
20260507020540 49 45 0.0 1.0 0.00 0.53 0.53 72 1014.5
20260507015539 49 90 0.0 1.0 0.00 0.53 0.53 71 1014.2
20260507014539 49 67 0.0 2.0 0.00 0.53 0.53 71 1014.1
20260507013538 50 90 0.0 0.0 0.00 0.53 0.53 71 1014.0
20260507012538 50 67 0.0 2.0 0.00 0.53 0.53 71 1013.9
20260507011537 50 315 0.0 2.0 0.00 0.53 0.53 71 1013.8
20260507010536 50 270 0.0 1.0 0.00 0.53 0.53 72 1013.9
20260507005536 50 45 0.0 1.0 0.00 0.53 0.53 71 1014.0
20260507004535 50 112 0.0 0.0 0.00 0.53 0.53 72 1014.3
20260507003534 51 270 0.0 0.0 0.00 0.53 0.53 71 1014.4
20260507002533 51 247 0.0 3.0 0.00 0.53 0.53 68 1014.2
20260507001533 51 315 0.0 2.0 0.00 0.53 0.53 68 1014.2
20260507000533 52 112 0.0 2.0 0.00 0.53 0.53 69 1014.0
20260506235647 52 225 1.0 3.0 0.00 0.53 0.53 69 1014.1
20260506234532 52 270 0.0 4.0 0.00 0.53 0.53 70 1014.1
20260506233532 53 45 1.0 4.0 0.00 0.53 0.53 70 1013.6
20260506232532 54 337 1.0 2.0 0.00 0.53 0.53 73 1013.5
20260506231647 54 292 0.0 3.0 0.00 0.53 0.53 72 1013.4
20260506230531 54 270 0.0 1.0 0.00 0.53 0.53 73 1013.3
20260506225530 54 292 0.0 2.0 0.00 0.53 0.53 72 1013.2
20260506224529 55 270 0.0 3.0 0.00 0.53 0.53 71 1013.0
20260506223529 55 337 0.0 4.0 0.00 0.53 0.53 72 1013.1
20260506222645 55 247 0.0 2.0 0.00 0.53 0.53 72 1013.0
20260506221528 55 247 0.0 2.0 0.00 0.53 0.53 73 1013.0